Flag for U.S.A. Weather past 2 weeks in Arlington, Texas, U.S.A.

Now
55 °F

Clear.


Feels Like: 55 °F
Forecast: 41 / 52 °F
Wind: 3 mph from Northwest

Location: Arlington Municipal Airport

Current Time: Dec 22, 2014 at 7:43:48 PM

Latest Report: Dec 22, 2014 at 6:53 PM


Visibility: 10 mi

Pressure: 29.64 "Hg

Humidity: 62%

Dew point: 42 °F

Location of ArlingtonLocation

Historic Weather in Arlington — Graph

°F

Arlington temperature yesterday

Maximum temperature yesterday: 54 °F (at 11:53 PM)
Minimum temperature yesterday: 48 °F (at 1:53 AM)
Average temperature yesterday: 51 °F

Past Weeks' High & Low Weather Summary

 TemperatureHumidityPressure
High72 °F (Dec 12, 2:53 PM)100% (Dec 18, 8:01 AM)30.38 "Hg (Dec 18, 8:01 AM)
Low37 °F (Dec 9, 1:53 AM)28% (Dec 15, 2:53 PM)29.55 "Hg (Dec 22, 1:53 PM)
Average53 °F73%30.12 "Hg
* Reported Dec 7 5:53 PM — Dec 22 5:53 PM, Arlington, Weather by CustomWeather, © 2014

Note: Actual official high and low records may vary slightly from our data, if they occured in-between our weather recording intervals... More about our weather records

Advertising

Arlington weather history for previous 24 hours

 ConditionsComfort  
Time TempWeatherWind HumidityBarometerVisibility
5:53 PM
Dec 22
59 °FClear.9 mph54%29.61 "Hg10 mi
4:53 PM61 °FSunny.14 mph50%29.61 "Hg10 mi
3:53 PM62 °FSunny.13 mph48%29.59 "Hg10 mi
2:53 PM64 °FSunny.13 mph43%29.57 "Hg10 mi
1:53 PM66 °FSunny.14 mph39%29.55 "Hg10 mi
12:53 PM65 °FSunny.14 mph40%29.57 "Hg10 mi
11:53 AM65 °FSunny.15 mph39%29.58 "Hg10 mi
10:53 AM64 °FSunny.9 mph45%29.59 "Hg10 mi
9:53 AM61 °FSunny.13 mph62%29.59 "Hg10 mi
8:53 AM57 °FSunny.12 mph78%29.59 "Hg10 mi
7:53 AM53 °FSunny.8 mph83%29.59 "Hg10 mi
6:53 AM53 °FClear.8 mph83%29.59 "Hg10 mi
5:53 AM53 °FClear.9 mph83%29.59 "Hg10 mi
4:53 AM53 °FClear.8 mph80%29.60 "Hg10 mi
3:53 AM54 °FPassing clouds.14 mph74%29.61 "Hg10 mi
2:53 AM54 °FPassing clouds.10 mph77%29.62 "Hg10 mi
1:53 AM54 °FOvercast.15 mph77%29.65 "Hg10 mi
12:53 AM54 °FOvercast.14 mph80%29.68 "Hg10 mi
11:53 PM
Dec 21
54 °FOvercast.15 mph80%29.70 "Hg10 mi
11:04 PM53 °FMostly cloudy.14 mph83%29.74 "Hg10 mi
10:53 PM53 °FMostly cloudy.14 mph80%29.74 "Hg10 mi
9:53 PM53 °FMostly cloudy.16 mph77%29.77 "Hg10 mi
8:53 PM52 °FMostly cloudy.14 mph80%29.78 "Hg10 mi
8:03 PM52 °FMostly cloudy.12 mph80%29.81 "Hg10 mi
7:53 PM52 °FMostly cloudy.12 mph77%29.80 "Hg10 mi
Weather by CustomWeather, © 2014

See weather overviewHow to use our weather pages